Location: Apeadero de Los Molinos-Guadarrama
(40.7091°N, 4.0689°W)
Time: 13:16:05
(UTC+00:00)

ERS-1 Rocket - Pass Details

Date: 14 May 2021
Orbit: 754 x 757 km, 98.4° (Epoch: 18 June)

Event Time Altitude Azimuth Distance (km) Brightness Sun altitude
Exits shadow 21:49:47 52° 142° (SE) 933 3.0 -21.8°
Maximum altitude 21:50:57 74° 75° (ENE) 788 2.9 -22.0°
Drops below altitude 10° 21:55:59 10° 351° (N) 2,290 6.3 -22.5°
Sets 21:58:17 0° 349° (N) 3,220 7.3 -22.8°
